Batman, Turkey

9:02 PM +03 on July 21, 2017 (GMT +0300)
Batman Air Base

Weather History for LTCJ - February, 2014

Change the Weather History Date:

Wednesday, February 26, 2014

  Actual Average (LTCC) Record (LTCC)
Temperature  
Mean Temperature 48 °F -  
Max Temperature 55 °F 51 °F 63 °F (2016)
Min Temperature 42 °F 31 °F 24 °F (2007)
Degree Days  
Heating Degree Days 16    
Moisture  
Dew Point 45 °F    
Average Humidity 81    
Maximum Humidity 100    
Minimum Humidity 63    
Precipitation  
Precipitation 0.24 in - - ()
Sea Level Pressure  
Sea Level Pressure 30.04 in    
Wind  
Wind Speed 8 mph ()    
Max Wind Speed 18 mph    
Max Gust Speed -    
Visibility 6.4 miles    
Events Rain    
Averages and records for this station are not official NWS values.
T = Trace of Precipitation, MM = Missing Value Source: Averaged Metar Reports

Daily Weather History Graph

Daily Weather History Graph

Search for Another Location

Airport or City:

Trip Planner

Search our weather history database for the weather conditions in past years. The results will help you decide how hot, cold, wet, or windy it might be!

Date:

Astronomy

Feb. 26, 2014 Rise Set
Actual Time 5:51 AM EET 5:05 PM EET
Civil Twilight 5:25 AM EET 5:32 PM EET
Nautical Twilight 4:54 AM EET 6:02 PM EET
Astronomical Twilight 4:24 AM EET 6:33 PM EET
Moon 3:17 AM EET (2/26) 1:57 PM EET (2/26)
Length of Visible Light 12h 06m
Length of Day
11h 13m
Waning Crescent, 12% of the Moon is Illuminated
Feb 26
Waning Crescent
Mar 1
New
Mar 8
First Quarter
Mar 16
Full
Mar 24
Last Quarter

Hourly Weather History & Observations

Time (EET) Temp. Windchill Dew Point Humidity Pressure Visibility Wind Dir Wind Speed Gust Speed Precip Events Conditions
12:20 AM 51.8 °F - 46.4 °F 82% 30.04 in 5.0 mi NNW 4.6 mph - N/A Rain Light Rain Showers
12:50 AM 50.0 °F - 48.2 °F 94% 30.04 in 5.0 mi North 6.9 mph - N/A Rain Light Rain Showers
1:20 AM 50.0 °F - 48.2 °F 94% 30.04 in 5.0 mi NE 6.9 mph - N/A Rain Light Rain Showers
1:50 AM 50.0 °F - 48.2 °F 94% 30.01 in 5.0 mi NNE 8.1 mph - N/A Rain Light Rain Showers
2:20 AM 50.0 °F - 48.2 °F 94% 30.01 in 5.0 mi ENE 4.6 mph - N/A Rain Light Rain Showers
2:50 AM 50.0 °F - 46.4 °F 87% 30.01 in 5.0 mi ENE 4.6 mph - N/A Rain Light Rain Showers
3:20 AM 50.0 °F - 48.2 °F 94% 30.01 in 5.0 mi NE 3.5 mph - N/A Rain Light Rain Showers
3:50 AM 48.2 °F - 46.4 °F 93% 30.04 in 3.7 mi NE 5.8 mph - N/A Rain Light Rain Showers
4:20 AM 50.0 °F - 46.4 °F 87% 30.04 in 3.7 mi East 6.9 mph - N/A Rain Light Rain Showers
4:50 AM 50.0 °F - 46.4 °F 87% 30.04 in 4.3 mi SE 9.2 mph - N/A Rain Light Rain Showers
5:20 AM 50.0 °F - 44.6 °F 82% 30.01 in 5.0 mi ESE 11.5 mph - N/A Rain Light Rain Showers
5:50 AM 50.0 °F - 42.8 °F 76% 30.01 in 6.2 mi ESE 11.5 mph - N/A Rain Light Rain Showers
6:20 AM 50.0 °F - 44.6 °F 82% 30.01 in 6.2 mi East 11.5 mph - N/A   Mostly Cloudy
6:50 AM 50.0 °F - 44.6 °F 82% 30.04 in 6.2 mi East 12.7 mph - N/A   Mostly Cloudy
7:20 AM 48.2 °F - 44.6 °F 87% 30.04 in 6.2 mi ENE 12.7 mph - N/A   Mostly Cloudy
7:50 AM 48.2 °F - 42.8 °F 82% 30.04 in 6.2 mi East 18.4 mph - N/A   Mostly Cloudy
8:00 AM 49 °F - 44 °F 77% 30.04 in 12 mi East 9.2 mph - -   Partly Cloudy
8:20 AM 50.0 °F - 44.6 °F 82% 30.04 in 6.2 mi ENE 18.4 mph - N/A   Mostly Cloudy
8:50 AM 51.8 °F - 44.6 °F 76% 30.04 in 6.2 mi East 16.1 mph - N/A   Mostly Cloudy
9:20 AM 51.8 °F - 46.4 °F 82% 30.04 in 6.2 mi East 13.8 mph - N/A   Mostly Cloudy
9:50 AM 53.6 °F - 44.6 °F 72% 30.04 in 6.2 mi ENE 15.0 mph - N/A   Mostly Cloudy
10:00 AM 53 °F - 45 °F 67% 30.04 in 12 mi East 11.5 mph - -   Mostly Cloudy
10:20 AM 53.6 °F - 46.4 °F 77% 30.04 in 6.2 mi ENE 17.3 mph - N/A   Mostly Cloudy
10:50 AM 55.4 °F - 46.4 °F 72% 30.04 in 6.2 mi East 13.8 mph - N/A   Scattered Clouds
11:00 AM 53 °F - 45 °F 67% 30.04 in 12 mi East 11.5 mph - -   Mostly Cloudy
11:20 AM 55.4 °F - 44.6 °F 67% 30.04 in 6.2 mi ENE 15.0 mph - N/A   Scattered Clouds
11:50 AM 55.4 °F - 44.6 °F 67% 30.04 in 6.2 mi ENE 13.8 mph - N/A   Scattered Clouds
12:20 PM 53.6 °F - 42.8 °F 67% 30.01 in 6.2 mi ENE 11.5 mph - N/A   Mostly Cloudy
12:50 PM 55.4 °F - 44.6 °F 67% 30.01 in 6.2 mi ENE 11.5 mph - N/A   Mostly Cloudy
1:11 PM 55.4 °F - 44.6 °F 67% 30.01 in 6.2 mi East 10.4 mph - N/A Rain Light Rain Showers
1:20 PM 53.6 °F - 44.6 °F 72% 30.01 in 6.2 mi ENE 10.4 mph - N/A Rain Light Rain Showers
1:33 PM 53.6 °F - 44.6 °F 72% 30.01 in 6.2 mi East 9.2 mph - N/A   Mostly Cloudy
1:50 PM 53.6 °F - 42.8 °F 67% 30.01 in 6.2 mi East 8.1 mph - N/A Rain Light Rain Showers
2:00 PM 54 °F - 45 °F 63% 30.01 in 12 mi ENE 6.9 mph - - Rain Light Rain Showers
2:20 PM 55.4 °F - 44.6 °F 67% 30.01 in 6.2 mi East 8.1 mph - N/A   Mostly Cloudy
2:50 PM 55.4 °F - 42.8 °F 63% 30.01 in 6.2 mi NE 6.9 mph - N/A   Mostly Cloudy
3:20 PM 55.4 °F - 42.8 °F 63% 30.01 in 6.2 mi North 3.5 mph - N/A   Mostly Cloudy
3:50 PM 55.4 °F - 44.6 °F 67% 30.01 in 6.2 mi Variable 4.6 mph - N/A   Mostly Cloudy
4:20 PM 53.6 °F - 44.6 °F 72% 30.01 in 6.2 mi ENE 8.1 mph - N/A   Mostly Cloudy
4:50 PM 53.6 °F - 44.6 °F 72% 30.04 in 6.2 mi ENE 5.8 mph - N/A Rain Light Rain Showers
5:00 PM 53 °F - 44 °F 64% 30.03 in 12 mi East 6.9 mph - -   Mostly Cloudy
5:12 PM 51.8 °F - 46.4 °F 82% 30.04 in 3.7 mi West 9.2 mph - N/A Rain Rain Showers
5:20 PM 50.0 °F - 46.4 °F 87% 30.04 in 2.5 mi SSW 6.9 mph - N/A Rain Rain Showers
5:43 PM 48.2 °F - 46.4 °F 93% 30.04 in 6.2 mi SE 6.9 mph - N/A Rain Light Rain Showers
5:50 PM 48.2 °F - 46.4 °F 93% 30.06 in 6.2 mi ESE 6.9 mph - N/A Rain Light Rain Showers
6:11 PM 48.2 °F - 46.4 °F 93% 30.06 in 6.2 mi ENE 5.8 mph - N/A   Mostly Cloudy
6:20 PM 48.2 °F - 46.4 °F 93% 30.06 in 6.2 mi East 4.6 mph - N/A   Mostly Cloudy
6:50 PM 48.2 °F - 46.4 °F 93% 30.06 in 6.2 mi SSE 3.5 mph - N/A   Mostly Cloudy
7:20 PM 50.0 °F - 46.4 °F 87% 30.06 in 6.2 mi SW 3.5 mph - N/A   Mostly Cloudy
7:50 PM 50.0 °F - 46.4 °F 87% 30.06 in 6.2 mi Variable 2.3 mph - N/A   Mostly Cloudy
8:00 PM 48 °F - 44 °F 82% 30.08 in 12 mi SE 4.6 mph - - Rain Light Rain Showers
8:20 PM 48.2 °F - 46.4 °F 93% 30.06 in 6.2 mi WNW 3.5 mph - N/A   Mostly Cloudy
8:50 PM 48.2 °F - 46.4 °F 93% 30.06 in 6.2 mi NW 2.3 mph - N/A   Mostly Cloudy
9:20 PM 48.2 °F - 46.4 °F 93% 30.06 in 6.2 mi Calm Calm - N/A   Mostly Cloudy
9:50 PM 46.4 °F - 44.6 °F 93% 30.06 in 6.2 mi Calm Calm - N/A   Mostly Cloudy
10:20 PM 44.6 °F - 42.8 °F 93% 30.06 in 6.2 mi Calm Calm - N/A   Mostly Cloudy
10:50 PM 42.8 °F 40.1 °F 42.8 °F 100% 30.06 in 6.2 mi NE 4.6 mph - N/A   Scattered Clouds
11:20 PM 42.8 °F 40.1 °F 42.8 °F 100% 30.06 in 6.2 mi NNE 4.6 mph - N/A   Scattered Clouds
11:50 PM 44.6 °F 43.1 °F 42.8 °F 93% 30.06 in 5.0 mi NNE 3.5 mph - N/A   Scattered Clouds